Regional Weather Roundup
Issued by NWS Grand Forks, ND

Home | Current Version | Previous Version | Graphics & Text | Print | Product List | Glossary On
Versions: 1 2 3 4 5 6 7 8 9 10 11 12 13 14 15 16 17 18 19 20 21 22 23 24 25 26 27 28 29 30 31 32 33 34 35 36 37 38 39 40 41 42 43 44 45 46 47 48 49 50
000
ASUS43 KFGF 220310
RWRFGF
PRAIRIE TO PINES  WEATHER ROUNDUP
NATIONAL WEATHER SERVICE EASTERN NORTH DAKOTA/GRAND FORKS ND
900 PM CST SUN DEC 21 2014

 **SATELLITE DATA USED TO AUGMENT SKY COVER AT AUTOMATED STATIONS**
 *****  WEATHER ACROSS EASTERN NORTH DAKOTA  *****

CITY           SKY/WX    TMP DP  RH WIND       PRES   REMARKS
GRAND FORKS    CLOUDY    32  31  96 SE10      29.57F WCI  24
GRAND FRKS AFB CLOUDY    32  32 100 S10       29.56F WCI  24
GRAND FRKS NWS   N/A     32 N/A N/A SE12        N/A  WCI  23
DEVILS LAKE    CLOUDY    30  25  80 SE13      29.49S WCI  20
FARGO          CLOUDY    36  32  85 SE15G23   29.56F FOG
WAHPETON ARPT  CLOUDY    34  32  93 SE12      29.56F
$$

 ***** WEATHER ACROSS CENTRAL AND WESTERN NORTH DAKOTA  *****

CITY           SKY/WX    TMP DP  RH WIND       PRES   REMARKS
BISMARCK       CLOUDY    29  29 100 SE7       29.46S FOG     WCI  22
MINOT          CLOUDY    29  27  92 E12       29.42S FOG     WCI  19
JAMESTOWN      CLOUDY    31  30  96 SE10      29.48F FOG     WCI  22
MINOT AFB      FRZ DRZL  30  30 100 SE13      29.42S FOG     WCI  20
GARRISON         N/A     27  25  92 E8        29.41S WCI  19
WILLISTON      CLOUDY    31  27  85 SE3       29.37R
DICKINSON      CLOUDY    37  34  89 W8        29.35S
HETTINGER      CLOUDY    36  34  92 W9        29.39S
$$

 *****  OTHER AIRPORT OBSERVATIONS IN OUR AREA  *****

CITY           SKY/WX    TMP DP  RH WIND       PRES   REMARKS
WALHALLA         N/A     32  32 100 SE14      29.56S FOG     WCI  22
GRAFTON AIRPOR NOT AVBL
VALLEY CITY AR CLOUDY    32  32 100 SE12      29.52S FOG     WCI  23
CANDO          CLOUDY    28  28 100 SE14G21   29.51R FOG     WCI  17
CAVALIER APRT  CLOUDY    32  32 100 SE9G16    29.57S FOG     WCI  24
GWINNER        CLOUDY    34  34 100 SE8       29.52F
ROLLA          FOG       28  28 100 S28       29.49R VSB 1/4 WCI  13
 ***** THE ABOVE OBSERVATIONS ARE NON NWS ARE NOT QUALITY
       CONTROLLED AND MAY MIS-REPORT RAIN FOR SNOW...
$$

  *****  WEATHER ACROSS NORTHERN MINNESOTA  *****

CITY           SKY/WX    TMP DP  RH WIND       PRES   REMARKS
FLAG ISLAND    CLOUDY    30  30 100 S13       29.63F WCI  20
WARROAD        CLOUDY    32  28  86 SE7       29.63S
ROSEAU         CLOUDY    34  28  80 SE10      29.61S
HALLOCK        CLOUDY    32  30  93 CALM      29.60R FOG
THF RVR FALLS  CLOUDY    32  30  93 SE10      29.59F WCI  24
BAUDETTE       CLOUDY    32  30  92 SE7       29.63F
WASKISH        CLOUDY    34  32  93 CALM      29.63F
CROOKSTON      CLOUDY    34  30  86 SE7       29.60S
STEPHEN NDAWN    N/A     32  30  93 SE8         N/A  WCI  25
GREENBUSH NDAW   N/A     30  30 100 SE1         N/A
$$
  *****  WEATHER ACROSS CENTRAL AND WEST MINNESOTA  *****

CITY           SKY/WX    TMP DP  RH WIND       PRES   REMARKS
FOSSTON        CLOUDY    30  30 100 SE9       29.59S WCI  22
BEMIDJI        CLOUDY    32  32  99 SE9       29.62S WCI  24
PARK RAPIDS    FOG       34  33  96 SE10      29.62R VSB 1
ELBOW LAKE     DRIZZLE   34  34 100 SE15      29.58S WCI  24
WADENA         DRIZZLE   34  32  93 SE9       29.61S
DETROIT LAKES  CLOUDY    34  34 100 SE14      29.59S FOG     WCI  24
MOORHEAD       CLOUDY    36  36 100 SE14      29.58S FOG
FERGUS FALLS   CLOUDY    34  34 100 SE13      29.61S FOG     WCI  25
MORRIS MN      FOG       36  34  93 SE12      29.57F VSB 1/2
STAPLES        CLOUDY    34  34 100 SE8       29.63S FOG
$$
  *****  WEATHER ELSEWHERE ACROSS MINNESOTA  *****

CITY           SKY/WX    TMP DP  RH WIND       PRES   REMARKS
DULUTH         CLOUDY    33  31  92 SE8       29.71F FOG
INTRNTL FALLS  CLOUDY    32  31  96 SE6       29.67F
ELY            CLOUDY    32  30  93 SE6       29.72S FOG
CLOQUET        CLOUDY    34  32  93 SE5       29.71S FOG
WHEATON        CLOUDY    32  32 100 SE13      29.57F FOG     WCI  22
BRAINERD       CLOUDY    34  33  96 S8        29.67S FOG
HIBBING        CLOUDY    33  31  92 SE9       29.69F FOG
ALEXANDRIA     FOG       34  34 100 SE9       29.61S VSB 1
SAINT CLOUD    FOG       37  35  92 SE13      29.67S VSB 1
MINNEAPOLIS    LGT RAIN  37  35  92 SE8       29.73F
$$

  *****  WEATHER ACROSS SOUTH DAKOTA  *****

CITY           SKY/WX    TMP DP  RH WIND       PRES   REMARKS
SIOUX FALLS    CLOUDY    39  37  92 S16       29.55F
BROOKINGS      NOT AVBL
WATERTOWN      CLOUDY    35  34  96 S16       29.49F
HURON          CLOUDY    36  33  89 S15       29.46F
SISSETON         N/A     34  34 100 SE12      29.51F
ABERDEEN       CLOUDY    36  33  89 S12       29.47F
MITCHELL       CLOUDY    38  36  92 S13       29.48S
PIERRE         CLOUDY    29  27  92 NW6       29.42R WCI  23
MOBRIDGE       FOG       30  29  96 SE6       29.41F VSB 3/4 WCI  24
RAPID CITY     MOCLDY    37  32  82 N13       29.44S
$$

  *****  SOME WEATHER IN NEARBY STATES *****

CITY           SKY/WX    TMP DP  RH WIND       PRES   REMARKS
GLASGOW MT     CLOUDY    36  32  85 NW23      29.41R
GREAT FALLS MT CLEAR     35  25  66 SW15      29.66R
CHEYENNE WY    CLOUDY    37  30  75 N20G33    29.58R
SCOTTSBLUFF NE CLOUDY    39  32  76 W13       29.55R
OMAHA NE       DRIZZLE   42  41  96 S18       29.68F FOG
DES MOINES IA  CLOUDY    43  38  82 S13       29.78F
DAVENPORT IA   CLOUDY    36  30  79 SE15      29.94F
CHICAGO IL     CLOUDY    34  28  79 SE10      30.04F
EAU CLAIRE WI  CLOUDY    37  35  92 S8        29.79F
LA CROSSE WI   CLOUDY    39  35  86 S18G28    29.83F
$$

  *****  SOME NATIONAL WEATHER *****

CITY           SKY/WX    TMP DP  RH WIND       PRES   REMARKS
LA GUARDIA NY  CLOUDY    35  29  78 N5        30.33F
RALEIGH NC     CLOUDY    43  31  62 E7        30.23F
ATLANTA GA     LGT RAIN  49  44  83 E13       30.09F
NEW ORLEANS LA CLOUDY    56  52  86 E6        29.98S FOG
OKLAHOMA CITY  CLOUDY    47  44  90 SE18      29.69F
ALBUQUERQUE NM PTCLDY    42  29  59 CALM      29.95R
SALT LAKE CITY CLOUDY    46  41  82 N13       29.98R
LOS ANGELES CA CLOUDY    60  56  86 SE6       30.04S
BOISE ID       LGT RAIN  41  39  93 NW5       30.10R
SEATTLE WA     CLOUDY    51  45  79 S10       30.07R
$$

*** WEATHER ACROSS MANITOBA...SASKATCHEWAN AND ONTARIO ***
                ***ONTARIO***

CITY           SKY/WX    TMP DP  RH WIND       PRES   REMARKS
GERALDTON      FLURRIES  34  30  86 SE9       29.86F
THUNDER BAY    LGT SNOW  34  34 100 SE6       29.83F
SIOUX LOOKOUT  FRZ DRZL  30  28  93 S6        29.70F WCI  24
TORONTO        MOCLDY    30  21  69 S2        30.28F
BIG TROUT LK   LGT SNOW  28  28 100 S9        29.75F WCI  20
PICKLE LAKE    NOT AVBL
DRYDEN         CLOUDY    30  30 100 S8        29.68S FOG     WCI  23
KENORA         NOT AVBL
$$
                *** MANITOBA***

CITY           SKY/WX    TMP DP  RH WIND       PRES   REMARKS
BRANDON        CLOUDY    27  25  93 E13       29.50S FOG     WCI  16
DAUPHIN        FRZ RAIN  27  27 100 SE12      29.54F VSB 1   WCI  16
ISLAND LAKE    CLOUDY    28  28 100 SE6       29.66S WCI  22
PILOT MOUND      N/A     28  28 100 CALM        N/A
THE PAS        CLOUDY    23  23 100 E5        29.61R WCI  17
THOMPSON       FRZ DRZL  21  19  93 NE3       29.69S
WINNIPEG       NOT AVBL
LYNN LAKE      FLURRIES  14  12  92 E3        29.68R
CHURCHILL      LGT SNOW  14  12  92 SW3       29.78S FOG
$$
                ***SASKATCHEWAN***

CITY           SKY/WX    TMP DP  RH WIND       PRES   REMARKS
ESTEVAN        CLOUDY    28  27  93 E9        29.38S WCI  20
KINDERSLEY     NOT AVBL
LLOYDMINSTER   LGT SNOW  19  18  93 NW5       29.51S FOG     WCI  13
PRINCE ALBERT  NOT AVBL
REGINA         CLOUDY    25  23  93 E7        29.40R WCI  17
YORKTON        LGT SNOW  23  23 100 E10       29.49R VSB 5/8 WCI  12
N. BATTLEFORD  CLOUDY    19  19 100 N5        29.54S WCI  13
LA RONGE       FLURRIES  19  18  93 NE8       29.60R WCI   9
SASKATOON      LGT SNOW  25  25 100 NE7       29.50S FOG     WCI  17
SWIFT CURRENT  LGT SNOW  21  19  93 NW18      29.42S WCI   6
$$
NOTE: THESE ARE AUTOMATED STATIONS WITH LIMITED QUALITY CONTROL
      "FAIR" INDICATES FEW OR NO CLOUDS BELOW 12,000 FEET WITH NO
      SIGNIFICANT WEATHER AND/OR OBSTRUCTIONS TO VISIBILITY.
      SKY/WX - SKY CONDITION AND SIGNIFICANT WEATHER.
      TMP - AIR TEMPERATURE.    DP   - DEWPOINT TEMPERATURE.
      RH  - RELATIVE HUMIDITY.  PRES - PRESSURE.
      HX  - HEAT INDEX.         WCI  - WIND CHILL INDEX.
$



USA.gov is the U.S. government's official web portal to all federal, state and local government web resources and services.